Regional Weather Roundup
Issued by NWS Upton, NY

Home | Current Version | Previous Version | Text Only | Print | Product List | Glossary On
Versions: 1 2 3 4 5 6 7 8 9 10 11 12 13 14 15 16 17 18 19 20 21 22 23 24 25 26 27 28 29 30 31 32 33 34 35 36 37 38 39 40 41 42 43 44 45 46 47 48 49 50
000
ASUS41 KOKX 211408
RWROKX

REGIONAL WEATHER ROUNDUP
NATIONAL WEATHER SERVICE NEW YORK NY
900 AM EST TUE FEB 21 2017

NOTE: "FAIR" INDICATES FEW OR NO CLOUDS BELOW 12,000 FEET WITH NO
SIGNIFICANT WEATHER AND/OR OBSTRUCTIONS TO VISIBILITY.

NYZ071-072-176-178-NJZ106-104-211500-
NEW YORK CITY METRO AREA

CITY           SKY/WX    TMP DP  RH WIND       PRES   REMARKS
Central Park   MOSUNNY   39  19  44 E6        30.40F WCI  35
Wall St Helipt NOT AVBL
LaGuardia APRT CLOUDY    39  21  48 NE8       30.38F WCI  33
Kennedy INTL   PTSUNNY   39  20  46 E7        30.40F WCI  34
Breezy Point     N/A     37 N/A N/A E6          N/A  WCI  33
Newark/Liberty PTSUNNY   39  18  42 CALM      30.39F
Teterboro      CLOUDY    37  18  46 CALM      30.38F
$$

NYZ177-179-078>081-211500-
LONG ISLAND NEW YORK

CITY           SKY/WX    TMP DP  RH WIND       PRES   REMARKS
Jones Beach      N/A     37 N/A N/A E7          N/A  WCI  32
Matinecock PT    N/A     36 N/A N/A E8          N/A  WCI  29
Farmingdale    SUNNY     38  21  50 E6        30.39S WCI  33
MacArthur/ISP  MOSUNNY   38  21  50 CALM      30.39R
Shirley        SUNNY     37  22  54 CALM      30.39S
Westhampton    SUNNY     38  22  52 NE5       30.40R WCI  34
Southampton    NOT AVBL
Bridgehampton  NOT AVBL
East Hampton     N/A     37  23  56 E5        30.37F WCI  33
Montauk          N/A     38  24  57 VRB6      30.39S WCI  33
$$

NYZ052-065-067-211500-
HUDSON VALLEY

CITY           SKY/WX    TMP DP  RH WIND       PRES   REMARKS
White Plains   MOSUNNY   36  14  40 VRB7      30.36F WCI  30
Newburgh       PTSUNNY   30  18  59 CALM      30.37F
Montgomery     CLOUDY    31  17  56 CALM      30.36F
Poughkeepsie   CLOUDY    29  17  61 CALM      30.38F
Albany         PTSUNNY   27  17  66 CALM      30.37S
$$

NJZ001-105-106-008-010-013-015-019>022-104-211500-
NEW JERSEY

CITY           SKY/WX    TMP DP  RH WIND       PRES   REMARKS
Newark/Liberty PTSUNNY   39  18  42 CALM      30.39F
Teterboro      CLOUDY    37  18  46 CALM      30.38F
Caldwell       CLOUDY    36  18  48 CALM      30.39F
Somerville     MOSUNNY   36  17  46 CALM      30.38S
Linden         NOT AVBL
Sussex         CLOUDY    32  21  64 E3        30.36F
Andover          N/A     32  17  54 CALM      30.36S
Trenton        MOSUNNY   38  22  52 E6        30.38S WCI  33
Millville      PTSUNNY   40  31  70 E6        30.37S
Atlantic City  MOSUNNY   43  30  60 E6        30.37S
Wrightstown    MOSUNNY   39  28  64 VRB3      30.35F
Toms River     CLOUDY    38  27  64 CALM      30.39S
Belmar         CLOUDY    40  30  67 E7        30.38F
$$

PAZ047>061-062-071-211500-
EASTERN PENNSYLVANIA

CITY           SKY/WX    TMP DP  RH WIND       PRES   REMARKS
Philadelphia   PTSUNNY   39  23  52 E10       30.38F WCI  32
Allentown      CLOUDY    37  17  44 NE5       30.36F WCI  33
Scranton       CLOUDY    37  13  37 VRB3      30.29F
$$

CTZ002-004>006-009-010-012-RIZ004-006-007-MAZ004-011-015-211500-
SOUTHERN NEW ENGLAND
 IN CT

CITY           SKY/WX    TMP DP  RH WIND       PRES   REMARKS
Bradley INTL   MOSUNNY   31  15  52 NW5       30.39S WCI  26
Hartford       SUNNY     31  16  54 NW5       30.40S WCI  26
Danbury        CLOUDY    32  15  49 CALM      30.39S
Wtrbury/Oxford SUNNY     34  12  40 CALM      30.37R
Bridgeport     SUNNY     38  15  39 CALM      30.40R
Meriden        SUNNY     35  14  42 N3        30.40R
New Haven      MOSUNNY   34  15  46 N6        30.39S WCI  29
Chester          N/A     34  12  40 CALM      30.37S
Groton         SUNNY     37  18  46 NE5       30.38S WCI  33
Wilimantic     SUNNY     31  18  58 CALM      30.39S

 IN RI

CITY           SKY/WX    TMP DP  RH WIND       PRES   REMARKS
Providence     PTSUNNY   36  15  42 N5        30.39F WCI  32
Block Island   SUNNY     37  26  64 NE8       30.39S WCI  31
Westerly       SUNNY     38  17  42 N5        30.39S WCI  34
 IN MA

CITY           SKY/WX    TMP DP  RH WIND       PRES   REMARKS
Boston         MOSUNNY   36  19  50 N6        30.40F WCI  31
Worcester      CLOUDY    32   9  38 E6        30.34S WCI  26
Westfield      SUNNY     29  16  58 CALM      30.38S
Provincetown   SUNNY     38  25  59 N9        30.39S WCI  31
Nantucket      SUNNY     41  31  67 N9        30.37S
$$

ANZ330-335-338-340-345-350-353-355-211500-
COASTAL MARINE OBSERVATIONS


STATION/POSITION TIME  SKY/WX   TEMP    WIND        PRES    VSBY  WAVE
                                AIR SEA DIR/SP/G                  HT/PER
                 (UTC)          (F)     (DEG/KT/KT) (MB)    (MI)  (FT/S)
NY HARB ENTRANCE 1250            38 42   70/ 10/ 12 1028.7          2/ 4
20 S FIRE ISLAND 1350            40 42   60/  6/  8 1028.9          3/ 5
GREAT SOUTH BAY  NOT AVBL
23 SSW MONTAUK P 1250            39 45              1028.9          3/ 4
15 E BARNEGAT LI 1330               44                N/A           3/ 5
HUDSON CANYON    1250               49              1027.6          4/ 6
KINGS POINT      1336            36 38              1028.9
EXECUTION ROCKS  NOT AVBL
CENTRAL LI SOUND 1315            36      60/  6/  8   N/A           1
EASTERN LI SOUND NOT AVBL
ROBBINS REEF     1336            37      70/  4/  5 1029.0
$$


>>>>>>>>>>>>>>>>>>>>>>>>>>>> KEY <<<<<<<<<<<<<<<<<<<<<<<<<<<
>                                                          <
>     SKY/WX - Sky Condition/Present Weather               <
>     TMP    - Temperature in Fahrenheit                   <
>     DP     - Dew Point in Fahrenheit                     <
>     RH     - Relative Humidity in Percent                <
>     WIND   - Direction (from) and Speed in MPH           <
>     PRES   - Mean Sea Level Pressure (inches of Hg)      <
>     WCI    - Wind Chill Index                            <
>     VSB    - VISIBILITY IN MILES                         <
>     HX     - HEAT INDEX                                  <
>     TC     - TEMPERATURE IN CELSIUS                      <
>     VRB    - VARIABLE WIND DIRECTION                     <
>                                                          <
>>>>>>>>>>>>>>>>>>>>>>>>>>>> KEY <<<<<<<<<<<<<<<<<<<<<<<<<<<



USA.gov is the U.S. government's official web portal to all federal, state and local government web resources and services.